Location: Ash Swamp
(41.5170°N, 74.6157°W)
Time: 17:23:23
(UTC+00:00)

Cosmos 1680 Rocket - Pass Details

Date: 14 July 2020
Orbit: 760 x 781 km, 74.1° (Epoch: 05 August)

Event Time Altitude Azimuth Distance (km) Brightness Sun altitude
Rises 01:03:57 0° 167° (SSE) 3,248 6.3 -5.9°
Reaches altitude 10° 01:06:38 10° 155° (SSE) 2,327 5.5 -6.3°
Maximum altitude 01:11:01 27° 99° (E) 1,463 4.5 -6.9°
Drops below altitude 10° 01:15:26 10° 43° (NE) 2,341 6.0 -7.6°
Sets 01:18:07 0° 31° (NNE) 3,273 6.9 -8.0°
